COSMOS 2378

Satellite information

Favourite Embed

Satellite Type and Status

PAYLOADIN ORBIT

Key statistics

Satellite COSMOS 2378 at a glance.

Uptime

8957

Days in orbit

Revolutions

≈ 13.7

Per day

Orbit

LEO

Low Earth Orbit

Inclination

82.9

Latest

Satellite identification and parameters

Extended collection of information and parameters for COSMOS 2378.

Object identification

Identified? True

Debris? False

Object name: COSMOS 2378

International designator: 2001-023A

Object number (NORAD): 26818

Object ID (CCSDS): 26818

Country: COMMONWEALTH OF INDEPENDENT STATES (CIS)

Current information (Y/N): Y

RCS size: LARGE

Orbital parameters

Period: 104.793 minutes

Inclination: 82.9272 deg

SMA: 7362.874 km

Apoapsis: 1008.729 km

Periapsis: 960.75 km

RAAN: 357.4406 deg

Eccentricy: 0.00325815

Argument of periapsis: 196.1914 deg

Mean anomaly: 337.571 deg

Mean motion: 13.74142207 rev/day

Mean motion (dot): 0.00000064 rev/day2

B* drag term: 0.000051347142 1/REarth

Two-line elements (TLE)

Creation date: Dec. 16, 2025, 2:19 a.m.

Reference frame: TEME

Reference center: EARTH

Epoch: Dec. 15, 2025, 7:41 p.m. UTC

TLE line 0: 0 COSMOS 2378

TLE line 1: 1 26818U 01023A 25349.82026792 .00000064 00000-0 51347-4 0 9994

TLE line 2: 2 26818 82.9272 357.4406 0032582 196.1914 337.5710 13.74142207229658

Live tracking on map

Real-time ground track for satellite COSMOS 2378.

In-orbit conjunctions

There are no conjunctions computed for COSMOS 2378, at the moment. Check back to stay up to date, as we update our databases every day.

Go to all conjunctions

Associated space launch

Navigation satellite providing location information for the Tsiklon-B navigation system

COSMOS 2378 was lifted into orbit during the mission ‘Kosmos-3M | Parus 92’, on board a Kosmos-3M space rocket.

The launch took place on June 8, 2001, 3:08 p.m. from 132/1 (132L).

For more information about the launch, click the button.

Launch to space Kosmos-3M | Parus 92
Kosmos-3M | Parus 92

Agency: N/A

Status: Launch Successful

Launch date: June 8, 2001, 3:08 p.m. UTC

Rocket: Kosmos-3M

Launch pad: 132/1 (132L)

Location: Plesetsk Cosmodrome, Russian Federation

...

Latest news about this satellite

There are no fresh news available about this satellite. Check back as we update our databases every day.


Newsletter sign-up

Weekly statistics, charts and insights to help you stay on top of the space industry.